Wind_Speed
5 5 6 6 5 4 4 3 3 3 4 4 4 5 4 2 1 1 1 2 3 6 10 10 11 16 16 15 17 17 14 13 13 13 14 15 16 17 18 18 19 20 18 16 15 15 16 16 16 15 14 13 11 9 9 9 8 5 5 7 7 6 7 7 8 8 7 5 5 7 9 9 9 10
6 6 7 6 6 4 3 3 3 3 3 4 4 4 5 4 4 3 2 2 3 6 11 11 12 15 15 15 17 15 12 12 13 15 16 17 19 19 19 21 21 20 18 16 16 15 15 15 14 13 12 11 10 9 9 9 9 5 4 6 7 6 6 6 7 7 7 6 4 5 8 10 10 9
7 7 7 6 6 5 3 3 3 3 4 5 5 5 5 6 6 6 5 2 4 8 11 11 11 13 14 14 15 13 10 11 14 16 18 19 20 20 20 21 20 18 17 16 15 14 13 14 14 13 13 11 10 9 9 9 8 6 5 6 7 7 6 6 6 6 7 7 5 5 7 9 10 9
7 7 7 7 6 5 4 3 4 4 5 6 6 6 7 6 6 8 7 5 7 12 12 11 11 11 12 13 14 12 9 11 13 16 18 19 19 20 20 18 16 15 15 14 13 13 14 14 15 16 15 14 12 10 9 9 7 6 7 7 8 7 6 6 5 5 5 6 6 6 6 7 9 8
7 7 7 7 7 6 5 5 5 6 6 6 6 6 7 8 7 8 8 8 9 12 12 11 10 10 11 12 12 11 11 12 14 16 17 18 18 19 17 15 14 14 14 13 13 13 15 16 16 16 16 15 14 12 10 8 7 9 9 8 8 8 7 6 5 5 5 5 5 6 5 6 7 7
7 8 8 7 7 7 7 7 7 8 8 8 8 7 7 8 8 8 9 9 9 11 12 11 10 10 11 13 11 11 13 15 15 16 17 18 18 17 14 13 14 14 14 14 14 14 15 17 17 17 17 16 15 14 13 11 10 10 10 9 9 8 8 7 5 5 4 4 4 5 5 5 6 6
9 9 9 8 8 8 9 8 8 9 9 9 9 9 8 9 8 7 8 9 9 10 12 11 10 11 12 13 12 12 13 14 15 15 16 18 17 15 13 13 14 14 14 15 15 15 16 17 17 17 17 16 15 14 14 13 13 11 9 9 9 9 9 8 7 5 4 3 3 3 4 4 5 6
10 11 11 10 9 9 10 9 9 9 10 10 10 10 10 9 9 8 8 8 9 10 11 11 11 12 13 13 12 12 14 14 13 13 15 17 17 14 12 12 13 14 13 15 16 16 16 17 16 16 16 16 16 15 14 13 12 11 9 8 8 9 9 9 9 7 4 3 3 2 1 2 4 5
12 12 12 11 11 11 12 11 11 10 10 10 10 10 10 10 9 8 8 8 8 10 12 12 11 12 12 12 11 12 14 14 12 13 15 17 16 14 12 12 14 13 12 14 16 17 17 16 15 15 16 16 17 17 16 14 11 9 9 8 7 7 8 9 9 9 7 4 3 1 0 1 2 3
13 13 13 13 13 13 13 13 13 12 11 11 11 12 11 10 9 8 8 8 9 10 11 10 10 11 11 11 11 11 12 12 13 15 17 16 15 14 12 13 15 14 13 15 17 18 17 17 16 17 18 18 18 18 18 17 14 11 9 8 7 6 6 6 7 8 8 6 5 3 1 1 2 3
13 13 13 14 14 14 14 14 14 13 13 12 12 12 12 11 9 9 9 9 9 9 9 9 9 10 10 9 10 10 9 10 12 15 18 17 15 13 12 13 16 15 13 15 18 18 18 18 18 20 21 21 21 21 21 20 19 17 14 11 8 6 5 5 5 6 6 6 5 4 3 2 3 4
14 14 14 15 15 15 15 14 13 13 13 12 11 11 10 10 10 10 10 9 8 8 8 9 9 9 8 8 9 9 10 11 12 14 15 15 14 12 10 12 15 14 13 16 18 19 19 20 20 22 24 25 24 23 23 22 21 20 18 15 12 9 6 4 4 4 4 4 4 4 3 3 3 3
16 16 15 15 14 14 14 14 13 12 12 12 11 10 9 10 10 10 9 8 8 8 9 9 8 7 7 7 7 8 8 10 11 12 13 12 12 11 8 9 12 12 12 14 17 18 18 20 22 23 25 27 26 25 24 23 21 19 18 17 15 13 10 8 5 3 3 3 3 3 3 2 2 3
19 18 17 15 14 14 14 14 13 13 12 12 12 11 11 10 10 10 10 10 10 10 9 8 6 6 6 6 5 5 6 8 10 11 12 12 11 11 8 7 9 12 11 12 16 18 16 17 20 22 24 25 26 26 25 23 20 18 17 16 15 14 13 11 9 7 5 3 2 2 2 2 2 2
21 20 19 17 16 15 15 14 13 13 13 13 13 13 12 12 11 11 11 12 12 11 9 8 6 6 6 6 4 4 6 8 10 11 10 10 10 9 7 4 6 11 11 10 13 16 15 14 17 20 21 22 24 25 24 22 19 18 17 16 15 14 13 13 12 10 8 6 4 2 2 2 3 3
22 21 20 19 18 17 16 15 14 13 13 13 13 14 13 13 13 12 12 12 12 11 10 8 7 7 7 7 5 4 6 9 11 11 10 10 8 6 4 3 5 9 10 9 11 13 14 12 15 18 20 20 21 21 21 21 19 18 17 17 16 16 15 14 13 11 10 9 7 6 4 4 3 3
22 22 22 21 20 18 17 17 15 13 12 12 13 14 14 13 12 13 13 13 13 12 11 10 9 8 8 8 7 6 7 9 11 11 11 11 8 5 2 2 5 8 9 9 10 11 12 11 13 17 18 18 19 19 20 21 19 17 17 18 18 18 17 16 15 13 12 10 10 9 9 8 7 7
22 22 22 23 23 21 20 19 17 14 13 13 13 14 14 12 12 13 13 14 14 13 12 12 11 10 9 9 8 7 7 8 10 11 12 11 6 1 1 3 5 7 9 9 8 8 10 10 13 16 17 17 18 20 20 20 18 17 18 19 20 20 20 19 18 16 15 14 13 14 14 13 13 12
21 20 20 22 24 24 22 21 19 17 15 14 14 13 12 12 12 12 12 13 13 12 12 12 11 10 9 9 9 8 7 8 9 10 9 6 2 3 4 5 4 6 9 9 6 6 8 9 11 14 15 15 17 20 19 18 18 18 19 19 20 21 21 21 20 20 19 18 17 17 17 17 17 17
21 22 21 21 22 24 23 21 19 18 17 16 14 13 11 11 12 11 11 11 10 10 10 10 10 9 9 9 9 8 7 7 7 6 3 3 5 6 6 6 5 6 8 7 6 7 8 9 9 11 14 15 16 18 18 17 17 19 20 19 20 20 20 20 21 20 20 20 19 19 18 18 18 17
21 23 24 23 23 23 23 22 20 19 18 17 14 12 11 11 12 12 11 10 9 9 9 9 9 9 9 9 9 7 5 4 4 3 5 6 6 6 5 4 5 6 7 6 6 7 8 9 7 7 10 14 17 17 16 15 14 16 19 19 19 19 19 20 20 20 20 20 19 19 18 17 17 17
24 24 24 23 23 24 24 24 23 22 20 18 15 13 12 12 13 13 12 11 10 9 9 9 9 9 9 9 8 7 6 5 4 5 6 6 6 5 4 3 4 6 7 6 5 6 7 9 8 6 5 9 14 15 14 14 13 13 16 18 18 19 19 18 19 19 19 18 18 18 18 17 17 17
28 29 27 22 21 24 26 25 23 22 21 18 15 14 13 12 12 12 12 11 10 10 10 9 9 9 8 8 8 8 7 6 5 5 5 5 4 4 5 4 5 4 5 5 4 5 8 9 10 7 3 3 7 11 13 15 14 13 14 15 16 17 18 17 17 18 17 17 17 16 16 16 15 14
26 28 29 26 25 25 24 23 22 22 20 17 14 13 12 11 10 10 11 11 10 10 10 10 9 8 8 8 9 9 7 6 7 7 6 5 4 5 7 7 7 5 4 5 5 6 8 9 9 9 5 2 2 5 9 14 16 15 14 15 16 16 16 16 16 17 17 16 16 15 15 14 13 13
19 19 19 20 22 21 20 21 22 20 18 16 13 11 11 10 9 9 9 9 9 9 9 8 8 7 7 8 9 8 7 8 9 8 7 7 6 6 6 8 10 10 8 7 6 5 7 9 10 9 7 4 3 4 6 10 16 16 14 15 17 16 15 15 15 16 16 16 16 15 14 14 13 14
13 13 12 12 17 18 16 17 18 17 15 14 11 9 10 9 8 7 7 8 9 9 9 8 6 5 7 9 9 8 8 10 10 9 8 7 6 7 7 7 9 10 9 7 7 6 7 9 10 9 7 5 5 6 6 6 11 15 13 13 15 16 15 15 16 16 16 16 15 14 13 12 12 13
11 11 11 11 13 15 13 11 12 13 12 11 10 9 9 8 6 6 5 5 7 9 10 9 5 5 8 9 9 9 10 11 10 9 8 7 7 8 9 8 8 9 8 7 7 7 8 9 9 9 8 6 6 6 6 6 10 14 13 11 12 15 16 16 16 17 17 16 15 14 14 14 13 13
12 11 11 10 9 10 10 9 8 9 9 8 8 7 6 6 6 6 4 3 6 9 8 4 2 6 9 9 9 9 10 11 10 8 8 8 8 9 9 9 8 9 8 7 7 7 8 9 9 9 8 8 7 5 4 6 10 15 14 11 11 13 17 17 17 18 18 18 18 18 17 17 16 15
11 11 10 10 9 6 4 4 5 5 5 4 5 7 7 7 8 6 5 4 3 7 3 2 5 7 9 9 9 8 10 11 10 9 9 10 10 10 10 10 10 9 8 7 7 7 7 8 8 8 7 8 8 6 4 6 10 12 13 13 11 10 15 18 17 18 19 19 18 18 17 16 15 14
10 9 8 8 9 9 9 8 6 6 6 5 6 7 6 5 4 3 3 5 8 8 5 6 8 8 9 9 7 7 9 11 11 11 11 11 11 10 9 9 10 10 9 8 8 7 7 7 7 7 7 7 6 5 4 5 8 8 10 13 11 9 13 17 17 18 19 18 17 16 16 15 14 14
8 7 6 5 6 6 6 6 5 4 3 2 1 2 3 4 6 8 9 9 11 11 10 8 7 6 8 10 9 9 10 11 10 10 11 11 10 9 8 7 9 9 8 7 7 7 7 6 6 6 7 7 5 3 2 4 6 7 8 11 11 9 12 14 16 17 18 17 15 16 17 17 15 14
6 4 3 4 6 8 8 10 11 12 12 11 11 10 11 11 10 11 11 11 11 12 12 11 11 10 11 12 11 11 10 10 8 7 7 7 8 7 6 5 7 6 5 5 6 6 6 7 7 7 7 6 4 2 1 3 5 6 6 8 10 9 9 10 13 15 16 15 15 16 18 17 15 15
3 5 7 9 10 12 15 16 16 16 16 16 16 15 15 15 14 14 15 15 15 15 14 14 15 14 13 13 11 10 10 9 7 6 5 5 5 5 4 5 6 6 6 6 6 6 6 6 7 7 6 4 2 2 2 3 5 6 7 8 9 9 8 10 11 13 14 15 15 15 15 14 14 14
4 8 11 12 13 16 18 20 19 19 19 18 18 18 18 18 18 18 18 17 17 15 15 15 15 14 14 13 12 10 10 10 8 7 6 6 5 5 6 7 7 7 7 8 9 9 9 9 9 9 8 5 2 3 3 2 5 8 9 8 9 9 8 9 10 12 14 15 14 12 11 11 12 14
7 10 13 15 15 17 18 19 19 19 19 19 19 18 18 18 18 18 18 17 16 15 15 15 14 14 13 13 12 11 11 10 9 8 7 7 7 7 8 8 7 7 7 8 9 10 11 12 12 12 10 6 2 3 4 3 7 10 9 8 8 8 8 8 11 13 14 13 13 11 9 9 12 13
10 12 14 15 15 16 17 17 17 17 18 18 18 18 18 18 17 17 16 15 14 14 14 14 14 14 13 12 12 11 10 9 8 8 8 7 7 7 7 7 6 6 6 6 8 9 10 12 13 11 8 5 3 2 4 5 8 10 9 9 9 8 9 12 14 14 14 14 14 12 10 10 13 14
13 14 15 16 16 17 17 17 17 18 18 18 18 18 18 18 17 16 15 13 13 14 14 14 14 14 12 11 11 10 9 8 8 8 8 8 7 7 7 6 6 6 5 5 6 8 9 10 12 10 7 5 4 2 3 7 9 9 8 10 11 10 11 14 14 13 13 14 13 13 12 12 12 13
16 17 18 18 18 18 18 18 18 18 18 17 17 18 17 17 15 14 13 12 13 13 13 13 13 12 11 10 9 8 8 7 7 7 7 7 7 7 6 4 4 5 5 4 5 7 9 9 9 8 6 4 4 3 5 8 10 8 6 8 11 12 12 13 12 12 13 13 13 14 14 12 11 12
17 18 18 18 17 17 16 16 16 16 16 16 15 15 14 13 12 11 11 12 12 11 11 11 11 10 9 9 8 8 7 7 7 7 7 7 6 5 4 3 3 4 5 4 4 5 7 8 8 7 7 6 6 7 9 11 12 10 7 7 8 11 12 12 12 12 12 13 14 14 13 11 10 11
17 17 17 17 16 15 15 15 14 14 13 13 13 12 11 10 10 10 10 10 10 10 10 10 9 8 8 8 8 7 7 7 7 7 7 6 5 4 4 4 4 4 4 4 4 5 6 7 8 8 8 8 8 9 10 9 9 9 9 8 8 9 11 12 12 12 12 13 14 13 12 11 11 11
16 16 16 15 14 14 13 13 12 12 11 11 10 9 9 9 9 9 9 9 9 9 9 9 9 8 8 8 8 8 7 7 7 6 5 5 4 4 4 3 3 4 4 4 5 6 7 8 8 7 7 7 7 6 5 5 5 7 10 10 9 9 9 10 11 12 12 12 12 11 11 11 11 10
14 14 14 13 13 12 12 11 10 10 9 9 8 8 8 8 8 8 8 8 8 8 8 8 8 8 9 9 9 9 8 7 7 6 5 4 4 4 4 3 3 3 4 4 5 7 7 7 7 6 5 6 6 5 4 5 6 8 10 12 12 11 10 9 9 9 9 10 10 10 11 11 9 8
12 12 12 11 11 10 9 9 8 8 7 7 6 6 5 6 6 6 6 7 7 8 8 9 9 10 11 11 11 10 8 6 7 7 5 4 4 4 4 3 3 3 4 4 5 7 7 7 7 7 6 6 6 5 5 6 8 8 9 10 11 12 11 10 10 9 8 8 9 9 9 9 8 8
10 10 10 9 8 8 7 7 6 6 5 4 4 4 4 4 5 5 6 6 7 8 9 10 11 12 12 12 11 10 7 5 5 6 4 4 4 3 3 3 4 4 4 5 6 7 7 7 8 7 6 6 5 5 6 7 7 7 8 9 9 10 10 10 11 11 10 9 9 8 8 8 8 8
8 8 7 7 6 6 6 5 5 4 3 3 2 3 3 4 4 5 6 6 7 8 10 11 12 13 12 11 10 8 6 5 5 5 4 4 3 3 3 4 4 4 5 5 6 7 7 8 8 7 7 6 5 5 6 7 7 7 8 8 9 9 9 9 9 10 9 9 10 10 9 8 9 10
Wind_Direction
292 301 305 304 306 308 303 289 286 306 320 326 324 317 314 301 290 301 322 318 305 329 343 344 352 3 10 17 19 18 25 38 41 36 32 26 21 15 8 0 354 350 348 346 346 347 348 348 351 355 357 1 8 15 17 18 22 29 28 26 31 43 49 52 61 71 78 89 116 134 140 146 151 153
285 295 298 296 294 293 288 280 267 275 302 317 319 316 307 288 261 241 255 300 283 308 333 338 343 354 3 13 15 19 34 40 33 25 19 15 12 8 3 357 352 349 349 350 352 355 358 0 3 4 3 5 13 18 16 18 26 41 48 35 36 45 53 55 60 72 83 91 108 135 144 149 154 159
276 284 289 284 283 288 281 272 273 283 301 312 316 315 304 290 274 253 239 248 284 296 317 333 345 351 356 6 10 15 28 25 17 14 10 8 5 0 357 354 351 354 357 0 5 10 16 19 23 26 24 19 16 12 9 11 24 54 75 50 41 46 55 60 60 68 84 95 105 130 148 154 157 164
278 283 285 279 277 284 279 272 276 285 297 302 303 304 298 287 276 261 240 231 276 296 309 325 341 349 350 357 3 5 10 9 7 6 5 4 2 357 354 354 359 6 9 13 21 29 36 39 41 42 40 36 29 17 6 6 26 71 88 65 47 46 52 63 66 64 78 96 108 125 148 160 165 174
280 286 286 277 270 270 270 270 273 279 288 289 285 283 284 281 275 265 250 243 272 299 314 325 335 343 346 352 357 357 357 357 358 0 2 5 5 359 357 4 15 21 24 29 38 46 47 46 43 40 38 39 37 30 23 26 52 81 88 74 56 48 48 58 70 69 71 87 108 125 146 164 173 181
274 283 285 275 265 267 271 275 279 282 286 288 287 283 280 281 280 274 265 254 262 290 308 320 330 338 342 349 354 353 353 352 352 357 3 9 10 7 9 21 30 32 37 43 47 48 45 40 38 36 34 33 35 38 42 54 74 83 83 77 66 54 48 50 60 71 72 74 95 122 141 165 181 190
272 279 284 283 275 274 278 281 283 285 287 288 287 287 283 278 279 282 276 263 260 279 298 310 323 333 339 345 350 351 349 349 352 359 6 11 15 19 22 30 36 39 46 48 44 39 36 34 36 37 34 31 29 32 39 51 65 73 78 82 74 62 54 50 50 57 69 73 76 106 136 159 183 199
273 278 284 286 283 281 283 284 285 285 288 288 283 282 280 273 273 282 284 275 269 272 282 296 314 327 335 341 347 348 347 350 358 4 8 12 18 27 29 28 34 41 47 46 40 33 31 31 35 38 38 35 31 28 29 35 45 56 67 81 82 71 64 60 54 49 50 63 67 74 124 159 177 198
277 280 283 284 284 285 285 284 285 285 285 284 280 278 278 274 271 275 283 286 281 274 275 286 305 321 329 337 347 350 350 355 1 3 7 14 20 26 30 27 30 39 42 40 37 32 31 35 41 44 42 40 38 35 32 31 33 43 56 70 85 81 71 67 62 54 47 43 45 46 7 221 204 203
278 281 283 284 284 283 284 283 282 282 283 281 278 277 278 277 272 272 279 285 285 282 279 283 298 315 324 333 345 355 359 2 3 359 2 13 23 27 29 27 31 41 43 39 39 37 40 47 52 52 49 47 46 44 42 40 39 41 48 61 80 88 81 73 68 62 56 47 37 23 343 270 244 232
278 282 284 284 284 282 282 283 280 279 281 280 275 273 275 274 271 274 280 280 279 277 274 276 292 309 321 332 342 353 3 4 5 3 360 5 18 27 32 27 30 42 44 38 42 48 55 60 60 59 57 53 50 49 48 47 46 46 48 52 65 81 86 83 77 72 67 60 50 35 10 327 278 256
279 282 283 284 284 282 280 279 277 276 277 276 273 271 270 268 268 275 279 275 267 261 261 273 289 302 314 329 339 349 0 0 1 2 357 355 5 19 34 34 30 37 41 36 40 49 57 60 61 63 61 55 52 51 50 49 48 48 51 52 56 61 66 73 83 84 78 69 60 45 27 3 324 292
274 277 281 282 283 282 279 275 272 271 268 266 267 270 268 264 264 270 272 263 249 245 254 269 282 292 307 328 341 350 1 358 351 351 351 351 358 7 30 46 32 30 37 37 39 44 50 56 60 62 59 53 50 50 49 48 47 47 49 52 54 56 56 58 66 77 80 64 49 29 13 0 339 318
271 273 275 277 278 279 276 270 265 263 263 264 269 274 272 268 265 265 263 252 243 243 250 260 270 282 301 321 337 344 345 340 339 344 346 346 351 358 16 42 31 25 31 37 39 40 44 54 60 61 59 53 48 47 46 46 45 45 44 46 48 51 52 54 56 59 61 54 34 355 331 326 314 302
273 273 273 272 273 272 269 264 257 255 260 264 270 275 276 276 272 266 262 255 247 244 243 249 256 265 286 303 313 318 320 324 332 339 339 336 341 352 2 15 17 19 26 35 39 37 38 53 65 63 60 56 49 45 43 41 41 42 43 44 44 45 45 46 49 50 49 45 34 4 322 302 281 264
273 273 272 271 270 268 264 258 253 252 257 264 269 273 274 275 270 263 259 255 248 243 240 243 247 251 270 285 287 295 307 314 323 330 329 325 327 337 345 6 21 19 22 30 39 37 34 50 70 67 62 59 53 44 38 37 39 42 45 48 48 47 45 43 42 41 40 37 33 25 11 347 317 291
273 275 274 270 267 264 258 253 251 251 257 265 272 275 275 274 268 259 253 248 244 242 241 244 247 248 261 274 277 283 295 307 316 321 320 316 315 320 334 49 51 31 20 24 38 41 35 49 72 70 65 64 57 45 37 37 42 48 53 56 56 55 53 50 48 47 45 44 42 39 34 26 17 12
274 275 275 272 266 259 252 249 248 249 255 262 268 274 276 274 267 257 249 244 241 241 243 247 251 252 260 273 278 279 287 301 310 311 308 305 301 289 129 112 79 40 21 19 32 43 37 50 73 72 68 68 60 48 42 45 52 61 63 63 62 62 60 59 58 58 58 58 57 55 54 52 50 50
277 277 279 277 269 259 250 246 245 247 253 259 263 268 270 267 261 253 245 241 239 240 243 246 250 253 261 269 272 277 288 300 305 300 293 287 240 146 134 132 102 43 22 18 38 53 40 48 72 73 70 70 60 50 49 55 62 66 66 64 63 63 62 61 62 62 63 65 64 63 65 67 68 69
285 285 285 281 269 258 253 250 248 250 255 258 259 259 257 253 249 244 239 237 236 237 241 243 246 251 258 264 270 279 287 293 294 281 246 171 149 138 129 130 105 53 28 29 60 69 44 40 64 75 69 64 56 51 54 61 66 64 63 61 60 60 60 59 59 60 61 62 64 65 67 70 73 74
286 286 283 275 264 257 253 249 250 255 258 257 254 247 240 237 238 239 239 239 237 236 238 241 244 248 252 261 270 272 263 259 252 209 164 146 145 140 125 123 109 67 42 47 78 76 50 39 50 75 74 60 52 51 54 59 64 61 58 56 55 56 56 56 56 56 55 56 58 60 61 64 70 75
284 283 279 271 262 256 248 241 245 251 253 251 248 240 229 226 232 239 242 239 236 236 237 239 244 248 253 261 263 250 231 219 207 188 170 156 150 134 114 126 127 88 56 60 88 85 64 53 50 63 80 60 52 53 53 53 57 56 52 50 50 50 51 52 53 54 53 52 52 54 56 59 65 73
284 280 275 267 260 252 243 237 242 244 242 241 239 233 226 224 230 239 240 235 232 234 236 240 246 249 255 257 245 228 217 204 185 170 160 155 144 117 108 124 139 113 61 60 89 89 74 66 58 54 67 63 52 56 56 52 51 51 46 43 43 43 44 47 49 51 53 53 50 51 54 56 58 62
286 284 277 268 260 253 244 237 238 236 231 227 223 221 225 228 231 237 240 238 239 241 241 244 248 249 250 238 218 206 198 179 162 148 133 115 90 95 113 118 115 109 78 71 89 91 76 69 60 56 70 99 44 57 65 55 49 50 46 39 38 37 36 40 46 49 53 56 55 53 53 53 49 46
287 291 284 266 252 244 234 227 226 222 216 211 210 220 234 239 238 238 238 243 250 253 251 250 249 244 229 208 193 187 178 160 150 138 119 101 84 87 109 117 109 102 90 79 82 82 70 62 50 47 67 94 73 77 86 58 45 48 49 42 39 39 38 39 43 46 49 53 56 55 52 48 43 38
304 300 296 273 250 240 234 225 217 212 209 207 209 224 236 237 238 239 244 259 270 273 277 280 267 229 199 180 169 165 163 155 146 134 122 117 108 99 101 112 113 107 98 85 74 64 58 54 46 41 52 75 77 77 84 56 35 38 46 46 41 40 40 40 40 40 40 42 44 44 41 37 33 28
339 322 313 299 271 258 259 248 222 213 216 216 217 226 230 232 243 252 264 293 311 313 311 305 278 204 173 155 143 144 150 151 146 138 133 131 127 120 114 116 116 110 101 88 71 57 48 47 47 44 47 60 76 73 65 42 22 21 32 46 46 39 35 34 32 31 27 25 24 22 19 17 14 13
352 343 337 328 303 272 263 257 240 229 230 229 231 240 250 256 255 251 253 295 358 0 339 306 221 171 158 144 131 131 144 154 152 144 140 137 136 134 129 124 118 110 100 86 69 55 46 46 48 45 43 52 64 64 51 33 20 15 17 27 35 32 26 22 21 19 16 15 14 13 13 12 10 10
350 349 350 348 343 338 326 311 300 293 293 293 286 291 299 287 265 249 248 254 45 42 15 193 149 142 147 144 136 136 150 161 160 150 145 142 140 141 136 124 115 107 100 90 77 66 59 59 56 46 37 43 51 55 53 36 27 23 19 16 14 14 14 13 11 10 10 10 10 12 15 16 16 16
336 343 354 0 1 6 8 0 344 327 328 332 312 298 296 274 234 180 156 153 131 127 156 160 131 126 141 152 162 167 164 167 164 158 157 153 146 149 148 130 111 101 95 91 84 76 71 69 61 42 27 26 31 38 43 36 34 36 30 21 14 1 359 2 3 4 5 5 4 6 10 13 15 17
338 349 5 24 37 44 43 41 50 64 76 86 120 164 141 137 140 136 141 155 159 165 175 165 147 150 154 153 159 164 161 162 161 161 169 168 157 159 163 136 106 94 90 86 79 73 65 56 46 34 24 20 24 33 38 38 42 40 28 21 17 3 352 355 358 358 358 357 355 356 0 4 6 7
5 33 71 96 101 100 93 87 87 93 100 105 108 113 116 116 120 132 144 150 151 153 155 150 147 151 144 133 133 137 138 139 140 150 169 171 162 167 170 133 97 83 74 69 62 58 52 41 33 28 21 15 20 33 26 37 43 36 17 6 4 360 354 355 356 353 351 351 350 350 353 357 359 359
43 100 120 120 113 106 100 97 96 96 98 100 101 104 108 109 112 118 122 120 120 125 129 125 123 125 122 115 114 116 113 109 110 123 137 137 137 150 143 107 83 63 46 35 23 19 21 20 16 15 12 4 347 315 332 25 34 17 1 352 349 350 354 356 355 351 349 350 348 345 346 354 360 1
93 118 117 108 104 102 100 99 100 101 101 100 98 99 100 100 101 103 104 106 109 113 116 114 112 112 109 105 102 102 99 96 95 99 106 107 104 104 97 84 69 53 38 24 11 2 357 354 351 352 355 356 318 273 291 5 19 1 351 348 345 345 349 353 353 350 349 351 348 341 339 350 1 7
104 113 108 99 97 99 97 96 99 103 103 100 97 96 94 92 91 91 92 96 100 103 104 104 103 102 102 100 99 97 96 94 92 90 92 92 88 86 84 75 59 42 28 16 5 357 353 352 352 352 352 353 339 256 257 305 356 355 349 345 347 348 348 351 352 351 351 355 355 349 342 342 351 4
98 102 101 95 94 97 96 94 97 101 102 100 98 96 91 86 84 84 85 86 90 91 92 93 93 93 94 94 94 92 89 86 82 79 74 72 71 69 66 60 48 33 21 10 0 356 355 356 358 358 351 337 328 258 252 306 350 3 355 345 349 355 351 349 350 351 355 0 360 355 348 342 344 352
97 96 94 92 92 94 94 94 96 98 97 97 96 94 91 88 85 85 85 84 84 84 85 86 87 87 87 87 87 84 79 74 69 63 55 50 46 42 37 34 26 16 9 3 355 353 353 355 357 359 351 327 318 298 284 318 351 17 16 355 350 351 350 350 349 350 355 359 359 355 349 339 336 340
99 96 94 92 92 93 93 93 94 94 93 92 90 89 88 88 86 84 82 79 78 79 79 78 79 78 76 75 72 67 63 57 50 46 41 34 28 24 20 12 3 359 353 346 347 350 350 353 356 356 350 330 317 316 312 321 336 358 14 1 351 347 349 351 348 346 348 350 350 350 346 339 334 339
96 95 93 92 92 91 91 90 90 90 89 88 87 86 86 85 82 79 75 72 72 73 71 71 70 66 63 60 55 49 43 37 32 28 23 19 15 9 1 343 335 341 339 331 335 344 346 349 351 347 339 321 304 304 304 305 315 334 358 12 4 356 352 350 344 340 341 343 343 342 339 338 340 346
93 92 91 90 90 89 89 88 87 86 86 86 86 86 86 83 80 76 75 74 72 70 68 67 62 55 50 46 40 34 28 22 18 12 3 360 355 347 338 325 318 326 329 324 327 336 337 339 339 334 324 312 302 303 302 298 306 333 356 13 23 15 5 360 355 348 343 344 344 342 342 345 346 348
93 92 90 90 89 87 86 85 84 85 85 85 85 84 82 80 79 78 76 73 70 67 66 64 57 48 41 33 25 19 10 2 359 354 345 339 332 323 320 316 310 318 326 326 326 328 329 331 332 325 318 319 323 323 320 317 321 334 345 356 14 23 18 11 7 359 352 352 352 349 347 347 345 345
96 94 92 89 86 84 82 81 80 80 80 80 80 78 77 76 76 74 71 66 62 60 57 54 46 36 27 18 10 4 355 343 339 336 329 324 323 320 322 328 325 326 330 326 323 326 331 337 341 339 345 360 1 352 343 343 340 337 339 346 356 6 12 12 10 9 12 16 14 6 358 352 347 346
98 96 92 88 83 79 76 72 69 69 68 69 71 71 73 76 76 73 68 62 58 54 46 38 27 16 8 1 355 352 346 331 322 323 322 322 325 326 327 334 334 331 333 331 328 333 341 351 356 359 7 14 11 1 351 345 340 337 337 340 344 351 359 6 10 18 32 38 31 22 14 8 0 352
97 94 91 87 81 76 72 67 64 61 58 61 66 68 70 75 74 71 67 59 52 44 32 21 11 3 357 351 348 347 342 325 314 317 319 319 322 325 328 333 338 342 344 343 341 342 348 356 4 10 11 6 4 3 354 343 337 336 338 341 344 348 352 356 1 8 15 19 18 16 13 9 4 356
95 90 86 80 72 67 64 58 53 50 49 56 71 76 76 76 74 68 59 47 36 25 14 5 359 354 350 347 345 342 337 320 313 321 329 330 332 337 342 344 345 346 349 352 349 344 346 354 4 9 5 359 2 4 353 343 338 340 342 344 349 352 352 351 353 355 355 355 356 358 357 354 354 353
Height
869 868 868 868 867 867 866 866 866 866 866 865 865 865 865 866 867 868 867 864 861 860 860 859 858 857 856 855 854 852 851 850 849 847 846 845 843 842 841 839 838 836 834 832 830 829 827 826 824 822 820 819 818 817 816 816 814 814 814 813 813 812 812 812 812 812 812 812 813 814 814 815 816 817
868 867 867 867 866 866 866 865 865 865 865 865 864 864 864 864 865 866 867 865 861 860 860 859 858 857 856 855 854 853 851 850 849 848 846 845 843 842 840 839 837 835 833 832 830 828 827 825 823 822 820 819 818 817 816 815 814 813 814 813 813 813 813 813 813 813 813 813 813 814 815 816 817 817
867 866 866 866 866 865 865 865 865 864 864 864 864 864 863 863 863 863 864 864 861 860 859 858 858 857 856 855 854 853 852 850 849 848 846 844 843 841 840 838 836 834 833 831 830 828 827 825 823 822 820 819 818 817 816 815 814 813 814 813 813 813 813 813 813 813 814 814 814 815 816 817 818 818
866 865 865 865 865 865 864 864 864 864 863 863 863 863 863 862 862 862 862 863 860 859 859 858 857 856 856 855 853 852 851 850 849 847 846 844 842 841 839 838 836 834 833 831 830 829 827 825 824 822 820 819 818 817 816 815 814 813 814 814 813 813 813 813 813 814 814 815 815 816 816 817 818 819
865 864 864 864 864 863 863 863 863 863 863 862 862 862 862 861 861 861 861 861 859 858 858 857 857 856 855 854 853 851 850 849 848 847 845 844 842 840 839 837 836 834 833 832 830 829 827 826 824 822 821 819 818 817 815 814 814 814 814 814 814 814 813 814 814 814 815 815 816 816 817 817 818 819
863 863 862 862 862 862 862 862 862 862 862 861 861 861 860 860 860 860 860 859 858 857 856 856 856 855 854 853 852 851 849 848 847 846 845 844 842 840 839 837 836 835 834 832 831 830 828 826 825 823 821 819 818 817 816 815 814 814 814 814 814 814 814 814 814 815 815 815 816 816 817 818 818 819
862 861 861 861 861 861 861 861 860 860 860 860 860 860 859 859 859 859 859 858 858 857 856 855 855 854 854 852 851 850 849 848 847 846 845 844 842 840 839 838 837 835 834 833 832 830 828 827 825 824 822 820 819 818 817 816 815 814 814 814 814 815 815 815 815 815 815 816 816 816 817 817 818 818
860 860 860 860 860 860 859 859 859 859 859 858 858 858 858 857 857 857 857 857 856 856 855 855 854 854 853 852 851 850 849 848 847 846 845 844 842 841 840 838 837 836 835 834 832 831 829 828 826 824 823 821 819 818 817 816 815 815 815 814 815 815 815 815 815 815 815 816 816 816 817 817 817 818
859 858 858 858 858 858 858 858 858 857 857 857 857 856 856 856 856 855 855 855 855 855 854 854 853 853 852 851 850 849 848 848 846 845 845 844 842 841 840 839 838 837 835 834 833 831 829 828 826 825 823 822 820 819 818 817 816 815 815 815 815 815 815 815 815 815 816 815 816 816 816 816 816 817
857 857 857 857 857 857 856 856 856 856 856 855 855 855 855 854 854 854 854 854 853 853 853 853 852 852 851 850 850 849 848 847 846 845 844 844 843 841 840 839 838 837 836 835 833 831 830 829 827 826 824 823 821 819 818 817 816 816 815 815 815 815 815 816 816 816 816 815 815 815 815 815 815 816
856 855 855 855 855 855 854 854 854 854 854 854 853 853 853 853 852 852 852 852 852 852 852 852 851 851 850 849 849 848 847 846 846 844 843 843 842 841 840 840 839 838 837 836 834 833 831 830 828 827 825 824 822 821 819 818 817 816 816 815 815 815 815 815 815 815 815 815 815 814 814 814 814 814
854 854 854 854 853 853 853 853 852 852 852 852 851 851 851 851 851 851 850 850 850 850 850 850 850 849 849 848 847 847 846 845 845 844 844 843 843 842 841 840 839 838 837 836 835 833 832 831 829 827 826 825 824 822 820 819 818 817 817 816 816 815 815 815 815 815 814 814 814 814 814 813 814 814
853 852 852 852 852 851 851 851 851 850 850 850 850 850 850 849 849 849 849 848 848 848 848 848 848 848 847 847 846 846 845 845 844 844 843 843 842 842 841 840 839 838 837 836 835 834 833 832 830 829 828 827 825 823 822 821 820 819 818 817 816 816 815 815 815 814 814 814 814 814 814 813 813 813
851 851 851 850 850 850 849 849 849 849 849 848 848 848 848 848 848 847 847 847 847 847 846 846 846 846 845 845 845 845 845 844 844 843 843 842 842 841 840 839 839 838 837 837 836 835 834 833 832 830 829 828 827 825 824 823 822 820 819 818 817 817 816 815 815 815 814 814 814 814 813 813 812 812
849 849 849 848 848 848 847 847 847 846 846 846 846 846 846 846 845 845 845 845 845 845 844 844 845 844 844 844 844 844 843 843 843 842 842 841 841 840 840 839 839 838 837 837 836 835 834 834 833 831 831 830 828 827 826 825 823 822 820 819 818 817 817 816 815 815 814 814 813 813 812 811 810 810
846 846 846 846 846 846 845 845 845 845 845 845 844 844 844 844 843 843 843 843 843 843 843 843 843 843 842 842 842 842 842 842 841 841 841 840 840 840 839 839 839 838 838 837 836 835 835 834 833 832 832 831 830 829 828 826 825 823 822 821 819 818 817 816 816 815 814 814 813 812 812 811 810 808
844 844 843 843 843 843 843 843 843 843 843 843 843 842 842 841 841 841 841 841 841 841 841 841 841 841 841 841 841 841 841 840 840 839 839 839 839 839 839 839 839 839 838 837 836 836 835 834 833 833 832 832 831 830 829 827 826 825 823 822 821 819 818 817 816 815 814 814 813 812 812 811 810 809
841 841 841 840 840 841 840 840 840 841 841 841 840 840 840 840 839 839 839 839 839 839 839 839 839 839 839 839 839 839 839 839 839 838 838 837 837 837 838 838 838 838 838 837 837 836 836 835 834 834 833 832 831 831 830 829 827 826 825 824 822 821 820 818 817 816 815 814 813 812 811 811 810 809
839 839 838 838 838 838 838 838 838 838 838 838 838 838 838 838 838 837 837 837 837 837 837 838 838 838 838 838 838 838 838 838 838 837 836 836 836 836 837 837 838 838 837 837 837 837 836 835 835 834 834 833 832 832 831 830 828 827 826 825 823 822 821 820 818 817 816 815 814 813 812 811 810 810
837 836 836 835 836 837 838 838 838 837 836 836 836 836 836 836 837 837 836 836 836 836 836 836 836 836 836 836 836 836 837 837 836 836 835 835 835 836 836 837 837 837 837 837 836 837 837 836 835 835 835 834 833 832 832 831 830 828 827 826 824 823 822 821 820 819 818 817 815 814 813 812 811 811
834 833 833 833 833 834 835 836 837 836 835 835 834 834 834 835 835 836 836 835 835 835 835 835 835 835 835 835 835 835 835 835 835 835 835 835 835 835 836 836 837 837 837 836 836 837 837 836 836 836 835 834 834 833 832 832 831 830 828 827 825 824 823 822 821 820 819 818 817 816 815 814 813 812
831 831 831 831 830 831 831 832 832 833 833 833 832 832 832 832 833 834 834 834 834 834 834 834 834 834 834 834 834 834 834 834 834 834 835 835 835 835 835 835 836 836 836 836 836 836 837 836 835 835 835 834 834 834 833 832 831 830 829 828 827 825 824 823 822 821 820 819 818 817 816 815 815 814
829 829 829 829 828 828 827 827 828 828 829 829 829 830 831 831 831 832 833 833 833 833 833 833 833 833 833 833 833 833 833 833 834 834 834 834 834 834 835 835 835 835 836 836 836 836 836 836 835 834 834 834 834 834 833 832 831 830 829 828 827 826 825 824 823 822 821 820 819 818 817 816 816 815
827 826 826 827 827 825 824 824 824 825 825 825 826 828 829 829 830 830 831 832 832 832 831 831 831 831 832 832 832 832 832 833 834 834 834 835 834 834 834 834 834 835 836 836 836 836 836 836 835 834 833 833 834 834 833 832 831 830 829 828 828 827 826 825 824 823 822 821 820 819 818 817 816 815
826 825 824 824 823 822 821 820 821 822 822 822 823 825 827 828 828 829 830 830 831 831 830 830 830 830 830 831 832 832 833 833 833 834 835 835 835 834 834 834 834 835 836 836 836 836 836 835 835 834 833 833 833 833 832 832 831 830 829 828 827 827 826 825 824 823 823 822 821 819 818 817 816 815
825 824 823 822 821 820 819 818 819 820 821 821 822 823 825 826 827 828 829 830 830 830 830 830 830 829 830 831 831 832 833 833 834 834 835 835 835 835 834 834 834 835 836 836 836 836 835 835 835 834 833 833 832 832 832 831 831 830 829 828 827 827 826 825 824 823 823 822 821 820 819 818 817 816
824 823 822 821 821 820 819 819 819 820 821 821 821 822 824 825 826 826 828 829 829 830 830 830 830 830 830 830 831 832 833 834 834 835 835 835 835 835 834 834 834 834 835 836 836 835 835 835 834 834 833 832 832 832 832 831 831 830 829 828 827 827 826 825 824 823 823 822 821 820 819 818 816 816
823 822 821 820 820 820 819 819 819 819 819 820 820 821 823 824 824 825 826 827 828 830 831 831 830 830 829 830 831 832 833 834 835 835 835 835 835 834 834 834 834 834 835 835 835 835 834 834 834 833 833 833 832 832 832 831 830 829 828 828 827 826 825 824 824 823 822 821 820 819 818 817 815 815
823 822 821 820 819 819 818 818 818 817 817 817 819 821 822 823 824 824 825 825 826 829 832 831 830 830 830 830 831 832 833 834 835 836 835 835 835 834 834 834 834 834 834 834 834 834 834 834 834 834 833 833 833 832 832 832 831 829 828 827 826 826 825 824 823 823 822 821 820 819 818 817 816 814
823 822 821 820 819 818 817 817 817 817 816 817 819 821 822 824 824 824 824 824 825 827 830 831 830 830 830 831 831 832 833 834 835 835 835 835 835 835 834 834 834 834 834 834 834 834 834 834 834 834 834 833 833 832 832 831 831 830 829 828 827 826 824 824 823 822 821 820 820 819 818 817 815 814
823 822 821 820 820 819 818 817 817 817 817 818 820 821 823 824 824 824 825 825 825 827 829 829 830 830 830 830 831 832 832 833 834 835 835 835 835 835 834 834 834 834 834 834 833 833 833 834 834 834 834 833 833 832 832 831 830 830 829 828 828 827 825 824 823 822 821 820 819 818 817 816 814 813
824 823 822 822 822 821 819 818 818 819 819 820 821 822 823 824 824 825 825 826 826 827 828 828 829 830 830 830 830 831 832 833 834 835 835 835 834 834 834 834 834 835 835 834 834 834 833 833 833 833 833 833 833 832 832 831 830 830 829 828 827 827 825 824 823 821 820 819 818 817 816 815 813 812
824 824 823 823 823 822 821 820 821 822 822 822 823 824 825 825 825 826 826 826 826 827 828 828 828 829 830 830 831 832 833 834 834 835 835 835 835 834 834 835 835 835 835 834 834 834 834 833 834 834 833 833 832 832 831 830 830 829 828 827 826 826 825 823 822 821 820 818 817 816 815 814 812 811
825 825 824 824 824 824 823 822 823 824 825 825 826 826 827 827 828 827 827 827 828 828 828 828 829 829 830 831 832 833 834 835 835 836 836 836 835 835 835 836 836 836 835 835 834 834 834 834 834 833 833 833 832 831 830 830 829 828 827 826 825 824 824 823 822 820 819 818 816 815 814 813 812 810
825 825 826 826 827 826 826 826 826 826 827 828 828 828 829 829 830 830 830 830 830 830 829 829 830 830 831 832 833 834 835 836 837 837 837 836 836 836 836 836 836 836 836 836 836 835 835 834 833 832 832 831 831 830 829 829 828 827 826 825 824 823 822 821 820 819 818 817 816 814 813 811 810 809
827 827 827 828 828 828 828 829 829 829 829 830 830 830 830 831 831 832 833 833 833 832 831 831 832 832 833 834 835 836 837 838 838 838 838 838 837 837 837 837 837 837 837 837 836 836 835 833 832 831 831 830 829 828 828 827 827 826 825 824 823 822 821 820 819 818 817 815 814 813 811 810 809 808
828 828 829 829 830 830 830 831 831 831 832 832 832 832 832 833 834 834 835 835 835 834 834 834 834 835 836 836 837 838 838 839 839 839 839 839 838 838 838 837 837 837 837 837 836 835 834 833 832 831 830 829 827 826 826 825 825 824 823 822 821 820 819 818 817 816 815 814 813 812 811 810 809 808
830 830 830 831 831 832 833 833 833 834 834 835 835 835 835 835 836 837 837 837 837 836 836 836 836 837 838 838 838 839 839 840 840 839 839 839 838 838 838 837 837 837 837 836 835 834 833 832 832 831 830 828 827 825 824 824 823 823 822 821 820 819 818 817 816 815 814 813 812 811 810 809 808 807
832 832 833 833 834 834 835 836 836 837 837 837 837 837 838 838 839 839 838 838 838 838 838 838 839 839 839 839 840 840 841 840 840 840 839 839 838 838 838 837 837 836 836 835 834 833 833 832 831 830 829 828 827 826 824 823 822 821 820 820 819 818 817 816 815 814 813 812 811 810 809 808 807 806
834 834 835 836 836 837 838 838 839 839 839 840 840 840 841 841 841 840 840 840 840 840 840 840 840 841 841 841 841 841 841 841 841 840 839 839 838 838 837 837 836 835 835 834 833 833 832 831 830 829 828 827 826 825 823 822 821 820 819 818 818 817 816 815 814 813 812 811 810 808 807 806 805 804
837 837 838 839 839 840 840 840 841 841 842 842 842 842 842 842 842 842 842 841 842 842 842 842 842 842 842 842 842 842 841 841 840 840 839 838 838 837 837 836 835 835 834 833 833 832 831 830 829 828 826 825 824 823 822 821 820 819 818 817 816 815 815 814 813 813 811 810 809 808 806 805 804 803
840 840 841 841 842 842 843 843 843 843 844 844 844 844 844 844 843 843 843 842 842 843 843 843 843 842 842 842 842 842 841 841 840 839 838 838 837 837 836 835 834 834 833 832 831 830 829 828 827 826 825 824 824 823 822 821 820 819 817 816 815 814 813 813 812 812 811 810 809 807 806 805 804 803
842 842 843 843 844 844 845 845 845 845 845 845 845 845 845 844 844 844 844 843 843 843 843 843 843 842 842 842 841 841 840 840 839 839 838 837 836 836 835 834 833 833 832 831 830 829 829 828 827 826 825 824 823 822 821 820 819 818 817 817 816 815 813 812 811 811 810 809 808 807 806 805 804 803
843 843 844 845 845 845 846 846 846 846 846 846 846 845 845 845 845 845 844 844 844 843 843 843 843 842 842 841 840 840 840 839 839 838 837 836 836 835 834 834 832 832 831 830 830 829 828 827 826 825 824 823 823 822 821 820 819 818 818 817 816 815 814 812 811 810 809 808 807 806 805 805 804 803
844 844 845 845 846 846 846 846 846 846 846 846 846 845 845 845 845 845 844 844 844 843 843 843 842 842 841 840 840 839 839 838 838 837 836 835 835 834 833 833 832 831 831 830 830 829 828 827 826 825 824 823 822 821 820 820 819 818 817 816 815 814 813 812 811 810 809 808 806 805 804 803 802 801